Time,TemperatureF,DewpointF,PressureIn,WindDirection,WindDirectionDegrees,WindSpeedMPH,WindSpeedGustMPH,Humidity,HourlyPrecipIn,Conditions,Clouds,dailyrainin,SoftwareType,DateUTC
2013-01-10 00:01:00,29.4,23.8,30.39,SSE,158,0.0,0.0,77,0.00,,,0.00,WSDL version 423,2013-01-10 06:01:00,
2013-01-10 00:06:00,29.2,23.6,30.39,SSE,158,0.0,0.0,77,0.00,,,0.00,WSDL version 423,2013-01-10 06:06:00,
2013-01-10 00:11:00,28.9,23.3,30.36,SSE,158,0.0,0.9,77,0.00,,,0.00,WSDL version 423,2013-01-10 06:11:00,
2013-01-10 00:16:00,28.8,23.2,30.36,SSE,158,0.0,1.6,77,0.00,,,0.00,WSDL version 423,2013-01-10 06:16:00,
2013-01-10 00:21:00,28.7,23.1,30.36,SE,145,0.0,1.6,77,0.00,,,0.00,WSDL version 423,2013-01-10 06:21:00,
2013-01-10 00:26:00,28.6,23.0,30.36,SE,135,0.0,0.0,77,0.00,,,0.00,WSDL version 423,2013-01-10 06:26:00,
2013-01-10 00:31:00,28.6,23.0,30.36,SE,124,0.0,0.0,77,0.00,,,0.00,WSDL version 423,2013-01-10 06:31:00,
2013-01-10 00:36:00,28.6,23.0,30.36,ENE,68,0.0,1.1,77,0.00,,,0.00,WSDL version 423,2013-01-10 06:36:00,
2013-01-10 00:41:00,28.6,23.0,30.36,ENE,68,0.0,1.1,77,0.00,,,0.00,WSDL version 423,2013-01-10 06:41:00,
2013-01-10 00:46:00,28.4,22.8,30.36,ENE,68,0.0,0.0,77,0.00,,,0.00,WSDL version 423,2013-01-10 06:46:00,
2013-01-10 00:51:00,28.4,22.9,30.36,ENE,68,0.0,0.0,77,0.00,,,0.00,WSDL version 423,2013-01-10 06:51:00,
2013-01-10 00:56:00,28.4,22.5,30.36,ENE,68,0.0,0.0,76,0.00,,,0.00,WSDL version 423,2013-01-10 06:56:00,
2013-01-10 01:01:00,28.4,22.6,30.36,NE,49,2.1,2.5,76,0.00,,,0.00,WSDL version 423,2013-01-10 07:01:00,
2013-01-10 01:06:00,29.2,23.3,30.36,ENE,68,2.9,3.6,76,0.00,,,0.00,WSDL version 423,2013-01-10 07:06:00,
2013-01-10 01:11:00,30.2,24.5,30.33,ENE,64,2.7,3.6,76,0.00,,,0.00,WSDL version 423,2013-01-10 07:11:00,
2013-01-10 01:16:00,30.8,24.9,30.33,ENE,68,1.1,3.6,76,0.00,,,0.00,WSDL version 423,2013-01-10 07:16:00,
2013-01-10 01:21:00,30.9,24.7,30.33,East,90,0.1,3.4,75,0.00,,,0.00,WSDL version 423,2013-01-10 07:21:00,
2013-01-10 01:26:00,31.0,24.7,30.36,ENE,71,0.2,2.0,74,0.00,,,0.00,WSDL version 423,2013-01-10 07:26:00,
2013-01-10 01:31:00,30.6,24.0,30.36,ENE,68,0.0,1.6,73,0.00,,,0.00,WSDL version 423,2013-01-10 07:31:00,
2013-01-10 01:36:00,30.6,24.1,30.36,ENE,68,0.0,1.3,74,0.00,,,0.00,WSDL version 423,2013-01-10 07:36:00,
2013-01-10 01:41:00,30.5,24.1,30.36,ENE,68,0.4,1.1,74,0.00,,,0.00,WSDL version 423,2013-01-10 07:41:00,
2013-01-10 01:46:00,30.3,23.8,30.36,ENE,68,0.2,1.3,74,0.00,,,0.00,WSDL version 423,2013-01-10 07:46:00,
2013-01-10 01:51:00,30.4,23.9,30.36,ENE,68,1.1,2.2,74,0.00,,,0.00,WSDL version 423,2013-01-10 07:51:00,
2013-01-10 01:56:00,30.4,24.1,30.36,ENE,68,1.0,2.7,75,0.00,,,0.00,WSDL version 423,2013-01-10 07:56:00,
2013-01-10 02:01:00,30.4,24.2,30.36,ENE,68,2.4,2.9,75,0.00,,,0.00,WSDL version 423,2013-01-10 08:01:00,
2013-01-10 02:06:00,30.4,24.6,30.36,NE,45,3.9,4.7,77,0.00,,,0.00,WSDL version 423,2013-01-10 08:06:00,
2013-01-10 02:11:00,30.6,24.9,30.33,ENE,68,2.7,5.4,76,0.00,,,0.00,WSDL version 423,2013-01-10 08:11:00,
2013-01-10 02:16:00,30.7,24.8,30.33,ENE,68,1.2,5.4,76,0.00,,,0.00,WSDL version 423,2013-01-10 08:16:00,
2013-01-10 02:21:00,30.7,24.8,30.33,East,84,0.9,2.9,76,0.00,,,0.00,WSDL version 423,2013-01-10 08:21:00,
2013-01-10 02:26:00,30.7,24.8,30.36,NNW,344,0.1,1.6,76,0.00,,,0.00,WSDL version 423,2013-01-10 08:26:00,
2013-01-10 02:31:00,30.7,24.8,30.36,ENE,68,0.1,2.2,76,0.00,,,0.00,WSDL version 423,2013-01-10 08:31:00,
2013-01-10 02:36:00,30.7,24.7,30.36,ENE,68,1.3,2.2,75,0.00,,,0.00,WSDL version 423,2013-01-10 08:36:00,
2013-01-10 02:41:00,30.6,24.4,30.39,ENE,68,0.0,2.2,75,0.00,,,0.00,WSDL version 423,2013-01-10 08:41:00,
2013-01-10 02:46:00,30.4,24.2,30.39,ENE,68,0.0,1.6,75,0.00,,,0.00,WSDL version 423,2013-01-10 08:46:00,
2013-01-10 02:51:00,30.4,24.2,30.39,ENE,68,0.0,1.1,75,0.00,,,0.00,WSDL version 423,2013-01-10 08:51:00,
2013-01-10 02:56:00,30.4,24.2,30.36,ENE,68,0.0,1.1,75,0.00,,,0.00,WSDL version 423,2013-01-10 08:56:00,
2013-01-10 03:01:00,30.5,24.3,30.36,ENE,68,0.0,1.6,75,0.00,,,0.00,WSDL version 423,2013-01-10 09:01:00,
2013-01-10 03:06:00,30.6,24.4,30.36,WNW,290,0.7,2.7,75,0.00,,,0.00,WSDL version 423,2013-01-10 09:06:00,
2013-01-10 03:11:00,30.6,24.2,30.36,ENE,61,0.9,2.7,74,0.00,,,0.00,WSDL version 423,2013-01-10 09:11:00,
2013-01-10 03:16:00,30.7,24.2,30.36,ENE,68,1.1,2.2,73,0.00,,,0.00,WSDL version 423,2013-01-10 09:16:00,
2013-01-10 03:21:00,30.9,24.2,30.36,NNE,32,1.4,2.9,73,0.00,,,0.00,WSDL version 423,2013-01-10 09:21:00,
2013-01-10 03:26:00,31.2,24.5,30.36,NE,51,2.0,3.1,73,0.00,,,0.00,WSDL version 423,2013-01-10 09:26:00,
2013-01-10 03:41:00,32.7,23.7,30.36,NNE,26,1.1,2.0,69,0.00,,,0.00,WSDL version 423,2013-01-10 09:41:00,
2013-01-10 03:46:00,32.7,23.4,30.36,ENE,58,1.4,2.5,68,0.00,,,0.00,WSDL version 423,2013-01-10 09:46:00,
2013-01-10 03:51:00,32.9,23.4,30.36,ENE,63,1.3,3.4,67,0.00,,,0.00,WSDL version 423,2013-01-10 09:51:00,
2013-01-10 03:56:00,32.9,23.1,30.36,ENE,68,0.6,3.4,66,0.00,,,0.00,WSDL version 423,2013-01-10 09:56:00,
2013-01-10 04:01:00,32.9,22.8,30.36,ENE,62,1.2,2.9,66,0.00,,,0.00,WSDL version 423,2013-01-10 10:01:00,
2013-01-10 04:06:00,32.9,22.7,30.36,ENE,68,1.1,2.5,66,0.00,,,0.00,WSDL version 423,2013-01-10 10:06:00,
2013-01-10 04:11:00,32.8,22.4,30.36,East,80,0.0,2.7,65,0.00,,,0.00,WSDL version 423,2013-01-10 10:11:00,
2013-01-10 04:16:00,32.6,22.2,30.36,South,177,0.0,2.7,65,0.00,,,0.00,WSDL version 423,2013-01-10 10:16:00,
2013-01-10 04:21:00,32.6,22.1,30.36,South,183,0.4,2.2,65,0.00,,,0.00,WSDL version 423,2013-01-10 10:21:00,
2013-01-10 04:26:00,32.5,22.0,30.33,ENE,68,0.4,2.2,65,0.00,,,0.00,WSDL version 423,2013-01-10 10:26:00,
2013-01-10 04:31:00,32.4,21.9,30.33,ENE,61,1.4,2.9,65,0.00,,,0.00,WSDL version 423,2013-01-10 10:31:00,
2013-01-10 04:36:00,32.3,21.8,30.33,ENE,64,1.3,2.9,65,0.00,,,0.00,WSDL version 423,2013-01-10 10:36:00,
2013-01-10 04:41:00,32.2,21.8,30.33,ENE,68,1.0,2.2,66,0.00,,,0.00,WSDL version 423,2013-01-10 10:41:00,
2013-01-10 04:46:00,32.1,22.4,30.33,ENE,68,0.5,2.2,66,0.00,,,0.00,WSDL version 423,2013-01-10 10:46:00,
2013-01-10 04:51:00,31.9,23.0,30.33,ENE,70,1.4,2.5,66,0.00,,,0.00,WSDL version 423,2013-01-10 10:51:00,
2013-01-10 04:56:00,31.7,22.9,30.33,ENE,68,1.4,2.5,67,0.00,,,0.00,WSDL version 423,2013-01-10 10:56:00,
2013-01-10 05:01:00,31.6,23.1,30.33,ENE,68,1.3,2.5,67,0.00,,,0.00,WSDL version 423,2013-01-10 11:01:00,
2013-01-10 05:06:00,31.5,22.9,30.33,ENE,68,0.5,2.2,67,0.00,,,0.00,WSDL version 423,2013-01-10 11:06:00,
2013-01-10 05:11:00,31.3,22.9,30.33,ENE,68,0.5,2.2,68,0.00,,,0.00,WSDL version 423,2013-01-10 11:11:00,
2013-01-10 05:16:00,31.2,22.9,30.33,ENE,68,0.9,2.2,68,0.00,,,0.00,WSDL version 423,2013-01-10 11:16:00,
2013-01-10 05:21:00,30.9,22.9,30.33,ENE,68,1.3,2.5,69,0.00,,,0.00,WSDL version 423,2013-01-10 11:21:00,
2013-01-10 05:26:00,30.7,22.8,30.33,ENE,70,1.6,3.4,70,0.00,,,0.00,WSDL version 423,2013-01-10 11:26:00,
2013-01-10 05:31:00,30.6,22.9,30.33,ENE,62,2.7,4.3,70,0.00,,,0.00,WSDL version 423,2013-01-10 11:31:00,
2013-01-10 05:36:00,30.5,23.0,30.33,ENE,64,3.2,4.9,71,0.00,,,0.00,WSDL version 423,2013-01-10 11:36:00,
2013-01-10 05:41:00,30.4,23.1,30.30,ENE,68,2.2,4.9,71,0.00,,,0.00,WSDL version 423,2013-01-10 11:41:00,
2013-01-10 05:46:00,30.2,23.2,30.30,ENE,73,2.4,4.3,72,0.00,,,0.00,WSDL version 423,2013-01-10 11:46:00,
2013-01-10 05:51:00,30.2,23.2,30.30,ENE,68,2.8,4.3,72,0.00,,,0.00,WSDL version 423,2013-01-10 11:51:00,
2013-01-10 05:56:00,30.2,23.3,30.30,ENE,70,3.0,4.3,73,0.00,,,0.00,WSDL version 423,2013-01-10 11:56:00,
2013-01-10 06:01:00,30.2,23.3,30.30,ENE,73,2.2,4.3,72,0.00,,,0.00,WSDL version 423,2013-01-10 12:01:00,
2013-01-10 06:06:00,30.1,23.1,30.30,ENE,68,0.0,3.1,72,0.00,,,0.00,WSDL version 423,2013-01-10 12:06:00,
2013-01-10 06:11:00,29.9,22.9,30.30,East,83,1.5,2.7,72,0.00,,,0.00,WSDL version 423,2013-01-10 12:11:00,
2013-01-10 06:16:00,29.8,22.8,30.30,ENE,68,1.2,3.1,72,0.00,,,0.00,WSDL version 423,2013-01-10 12:16:00,
2013-01-10 06:21:00,29.8,22.7,30.30,ENE,68,0.9,3.1,72,0.00,,,0.00,WSDL version 423,2013-01-10 12:21:00,
2013-01-10 06:26:00,29.6,22.6,30.33,ENE,68,1.4,2.0,72,0.00,,,0.00,WSDL version 423,2013-01-10 12:26:00,
2013-01-10 06:31:00,29.5,22.5,30.33,ENE,71,0.8,2.5,72,0.00,,,0.00,WSDL version 423,2013-01-10 12:31:00,
2013-01-10 06:36:00,29.5,22.2,30.33,ENE,68,1.5,2.5,71,0.00,,,0.00,WSDL version 423,2013-01-10 12:36:00,
2013-01-10 06:41:00,29.5,22.2,30.33,ENE,68,0.0,2.5,71,0.00,,,0.00,WSDL version 423,2013-01-10 12:41:00,
2013-01-10 06:46:00,29.5,22.2,30.33,ENE,71,2.4,3.4,71,0.00,,,0.00,WSDL version 423,2013-01-10 12:46:00,
2013-01-10 06:51:00,29.5,22.2,30.33,ENE,73,2.1,3.4,71,0.00,,,0.00,WSDL version 423,2013-01-10 12:51:00,
2013-01-10 06:56:00,29.5,22.2,30.33,ENE,64,2.5,3.4,71,0.00,,,0.00,WSDL version 423,2013-01-10 12:56:00,
2013-01-10 07:01:00,29.7,22.4,30.33,ENE,73,2.2,4.0,71,0.00,,,0.00,WSDL version 423,2013-01-10 13:01:00,
2013-01-10 07:06:00,29.7,22.4,30.33,ENE,77,1.6,4.0,71,0.00,,,0.00,WSDL version 423,2013-01-10 13:06:00,
2013-01-10 07:11:00,29.7,22.4,30.30,ENE,68,1.3,3.4,71,0.00,,,0.00,WSDL version 423,2013-01-10 13:11:00,
2013-01-10 07:16:00,29.7,22.4,30.30,ENE,74,1.8,3.1,71,0.00,,,0.00,WSDL version 423,2013-01-10 13:16:00,
2013-01-10 07:21:00,29.7,22.4,30.30,ENE,71,2.3,4.0,71,0.00,,,0.00,WSDL version 423,2013-01-10 13:21:00,
2013-01-10 07:26:00,29.8,22.5,30.30,ENE,68,2.1,4.0,71,0.00,,,0.00,WSDL version 423,2013-01-10 13:26:00,
2013-01-10 07:31:00,29.8,22.5,30.30,ENE,63,3.1,4.9,71,0.00,,,0.00,WSDL version 423,2013-01-10 13:31:00,
2013-01-10 07:37:00,30.0,22.7,30.30,ENE,71,2.9,5.8,71,0.00,,,0.00,WSDL version 423,2013-01-10 13:37:00,
2013-01-10 07:42:00,30.1,22.8,30.30,ENE,75,2.6,6.3,71,0.00,,,0.00,WSDL version 423,2013-01-10 13:42:00,
2013-01-10 07:48:00,30.2,22.9,30.30,ENE,65,2.4,6.3,71,0.00,,,0.00,WSDL version 423,2013-01-10 13:48:00,
2013-01-10 07:53:00,30.3,22.8,30.30,ENE,77,1.6,5.6,70,0.00,,,0.00,WSDL version 423,2013-01-10 13:53:00,
2013-01-10 07:58:00,30.6,22.9,30.30,ENE,64,3.6,5.6,70,0.00,,,0.00,WSDL version 423,2013-01-10 13:58:00,
2013-01-10 08:03:00,30.8,23.1,30.30,ENE,65,4.2,5.6,70,0.00,,,0.00,WSDL version 423,2013-01-10 14:03:00,
2013-01-10 08:08:00,30.9,23.3,30.30,ENE,68,2.6,5.6,70,0.00,,,0.00,WSDL version 423,2013-01-10 14:08:00,
2013-01-10 08:13:00,31.0,23.4,30.30,ENE,71,3.0,4.9,70,0.00,,,0.00,WSDL version 423,2013-01-10 14:13:00,
2013-01-10 08:18:00,31.1,23.5,30.30,ENE,68,3.4,5.4,70,0.00,,,0.00,WSDL version 423,2013-01-10 14:18:00,
2013-01-10 08:23:00,31.3,23.7,30.30,East,79,3.6,6.0,70,0.00,,,0.00,WSDL version 423,2013-01-10 14:23:00,
2013-01-10 08:28:00,31.5,23.9,30.27,ENE,68,3.3,6.3,70,0.00,,,0.00,WSDL version 423,2013-01-10 14:28:00,
2013-01-10 08:33:00,31.7,24.0,30.27,ENE,64,3.6,6.3,70,0.00,,,0.00,WSDL version 423,2013-01-10 14:33:00,
2013-01-10 08:38:00,31.9,24.2,30.27,ENE,59,3.2,5.8,70,0.00,,,0.00,WSDL version 423,2013-01-10 14:38:00,
2013-01-10 08:43:00,32.0,24.2,30.27,ENE,68,4.0,7.2,70,0.00,,,0.00,WSDL version 423,2013-01-10 14:43:00,
2013-01-10 08:48:00,32.2,23.5,30.27,ENE,63,4.0,7.2,70,0.00,,,0.00,WSDL version 423,2013-01-10 14:48:00,
2013-01-10 08:53:00,32.2,23.5,30.27,ENE,70,3.8,6.0,70,0.00,,,0.00,WSDL version 423,2013-01-10 14:53:00,
2013-01-10 08:58:00,32.4,23.7,30.27,ENE,68,5.0,8.1,70,0.00,,,0.00,WSDL version 423,2013-01-10 14:58:00,
2013-01-10 09:03:00,32.5,23.8,30.27,ENE,63,3.0,8.1,70,0.00,,,0.00,WSDL version 423,2013-01-10 15:03:00,
2013-01-10 09:08:00,32.6,24.0,30.27,ENE,61,3.9,6.5,70,0.00,,,0.00,WSDL version 423,2013-01-10 15:08:00,
2013-01-10 09:13:00,32.8,24.3,30.27,ENE,70,3.7,6.5,71,0.00,,,0.00,WSDL version 423,2013-01-10 15:13:00,
2013-01-10 09:18:00,33.1,24.5,30.27,ENE,71,4.0,7.6,70,0.00,,,0.00,WSDL version 423,2013-01-10 15:18:00,
2013-01-10 09:23:00,33.1,24.5,30.27,ENE,73,4.8,7.6,70,0.00,,,0.00,WSDL version 423,2013-01-10 15:23:00,
2013-01-10 09:28:00,33.4,24.6,30.24,ENE,64,4.8,8.5,70,0.00,,,0.00,WSDL version 423,2013-01-10 15:28:00,
2013-01-10 09:33:00,33.5,24.6,30.24,ENE,74,6.0,8.5,70,0.00,,,0.00,WSDL version 423,2013-01-10 15:33:00,
2013-01-10 09:38:00,33.6,24.6,30.24,ENE,60,4.8,7.6,69,0.00,,,0.00,WSDL version 423,2013-01-10 15:38:00,
2013-01-10 09:43:00,33.8,24.7,30.24,NE,56,4.5,7.6,69,0.00,,,0.00,WSDL version 423,2013-01-10 15:43:00,
2013-01-10 09:48:00,33.9,24.8,30.24,ENE,68,5.6,7.4,69,0.00,,,0.00,WSDL version 423,2013-01-10 15:48:00,
2013-01-10 09:53:00,34.0,24.7,30.24,ENE,61,4.2,8.5,68,0.00,,,0.00,WSDL version 423,2013-01-10 15:53:00,
2013-01-10 09:58:00,34.2,25.1,30.24,ENE,59,4.2,8.5,69,0.00,,,0.00,WSDL version 423,2013-01-10 15:58:00,
2013-01-10 10:03:00,34.4,25.3,30.24,ENE,68,4.1,6.5,69,0.00,,,0.00,WSDL version 423,2013-01-10 16:03:00,
2013-01-10 10:08:00,34.6,25.5,30.24,ENE,61,4.0,8.1,69,0.00,,,0.00,WSDL version 423,2013-01-10 16:08:00,
2013-01-10 10:13:00,34.9,25.7,30.24,NE,55,3.8,8.1,68,0.00,,,0.00,WSDL version 423,2013-01-10 16:13:00,
2013-01-10 10:18:00,35.2,25.7,30.24,ENE,64,3.6,5.8,68,0.00,,,0.00,WSDL version 423,2013-01-10 16:18:00,
2013-01-10 10:23:00,35.5,25.8,30.24,ENE,78,4.4,5.8,67,0.00,,,0.00,WSDL version 423,2013-01-10 16:23:00,
2013-01-10 10:28:00,35.8,25.8,30.21,East,79,3.8,6.3,66,0.00,,,0.00,WSDL version 423,2013-01-10 16:28:00,
2013-01-10 10:33:00,36.2,25.9,30.21,ENE,74,4.4,7.4,65,0.00,,,0.00,WSDL version 423,2013-01-10 16:33:00,
2013-01-10 10:38:00,36.6,25.9,30.21,ENE,62,3.5,7.4,65,0.00,,,0.00,WSDL version 423,2013-01-10 16:38:00,
2013-01-10 10:43:00,36.9,25.7,30.21,East,93,4.1,9.4,63,0.00,,,0.00,WSDL version 423,2013-01-10 16:43:00,
2013-01-10 10:48:00,37.0,25.3,30.21,NE,55,4.8,9.4,62,0.00,,,0.00,WSDL version 423,2013-01-10 16:48:00,
2013-01-10 10:53:00,37.3,25.3,30.21,ENE,71,3.7,7.4,61,0.00,,,0.00,WSDL version 423,2013-01-10 16:53:00,
2013-01-10 10:58:00,37.6,25.4,30.21,ENE,71,4.0,6.5,60,0.00,,,0.00,WSDL version 423,2013-01-10 16:58:00,
2013-01-10 11:03:00,37.9,25.3,30.21,East,86,3.6,6.5,60,0.00,,,0.00,WSDL version 423,2013-01-10 17:03:00,
2013-01-10 11:08:00,38.3,25.2,30.21,ENE,73,4.7,8.1,58,0.00,,,0.00,WSDL version 423,2013-01-10 17:08:00,
2013-01-10 11:13:00,38.6,25.0,30.18,East,82,4.8,8.1,57,0.00,,,0.00,WSDL version 423,2013-01-10 17:13:00,
2013-01-10 11:18:00,38.8,24.7,30.18,ENE,73,5.0,8.1,56,0.00,,,0.00,WSDL version 423,2013-01-10 17:18:00,
2013-01-10 11:23:00,39.1,24.9,30.18,ENE,73,4.0,6.5,56,0.00,,,0.00,WSDL version 423,2013-01-10 17:23:00,
2013-01-10 11:28:00,39.2,24.9,30.18,NE,45,4.4,7.4,56,0.00,,,0.00,WSDL version 423,2013-01-10 17:28:00,
2013-01-10 11:33:00,39.4,25.0,30.18,ENE,78,4.2,8.1,56,0.00,,,0.00,WSDL version 423,2013-01-10 17:33:00,
2013-01-10 11:38:00,39.5,25.1,30.18,ENE,68,4.5,8.1,56,0.00,,,0.00,WSDL version 423,2013-01-10 17:38:00,
2013-01-10 11:43:00,39.7,25.3,30.15,East,82,4.8,6.3,56,0.00,,,0.00,WSDL version 423,2013-01-10 17:43:00,
2013-01-10 11:48:00,39.7,25.1,30.15,East,87,5.1,8.5,55,0.00,,,0.00,WSDL version 423,2013-01-10 17:48:00,
2013-01-10 11:53:00,39.9,25.3,30.15,ENE,76,4.2,8.5,56,0.00,,,0.00,WSDL version 423,2013-01-10 17:53:00,
2013-01-10 11:58:00,39.9,25.3,30.15,ENE,71,4.5,7.6,55,0.00,,,0.00,WSDL version 423,2013-01-10 17:58:00,
2013-01-10 12:03:00,39.9,25.3,30.15,ENE,75,4.7,7.6,56,0.00,,,0.00,WSDL version 423,2013-01-10 18:03:00,
2013-01-10 12:08:00,39.8,25.2,30.15,ENE,77,4.7,10.3,56,0.00,,,0.00,WSDL version 423,2013-01-10 18:08:00,
2013-01-10 12:13:00,39.7,25.3,30.12,ENE,74,4.0,10.3,56,0.00,,,0.00,WSDL version 423,2013-01-10 18:13:00,
2013-01-10 12:18:00,39.7,25.3,30.12,ENE,71,4.5,8.5,56,0.00,,,0.00,WSDL version 423,2013-01-10 18:18:00,
2013-01-10 12:23:00,39.6,25.6,30.12,ENE,70,4.6,8.5,58,0.00,,,0.00,WSDL version 423,2013-01-10 18:23:00,
2013-01-10 12:28:00,39.6,26.2,30.09,ENE,70,4.3,8.1,59,0.00,,,0.00,WSDL version 423,2013-01-10 18:28:00,
2013-01-10 12:33:00,39.6,26.5,30.09,East,82,4.7,8.1,59,0.00,,,0.00,WSDL version 423,2013-01-10 18:33:00,
2013-01-10 12:38:00,39.8,26.6,30.09,East,96,4.7,8.1,59,0.00,,,0.00,WSDL version 423,2013-01-10 18:38:00,
2013-01-10 12:43:00,40.0,26.9,30.09,ESE,108,2.6,8.1,60,0.00,,,0.00,WSDL version 423,2013-01-10 18:43:00,
2013-01-10 12:48:00,40.3,27.5,30.09,NE,56,4.1,5.8,59,0.00,,,0.00,WSDL version 423,2013-01-10 18:48:00,
2013-01-10 12:53:00,40.5,27.3,30.09,ENE,70,6.1,8.7,59,0.00,,,0.00,WSDL version 423,2013-01-10 18:53:00,
2013-01-10 12:58:00,40.8,27.6,30.09,ENE,76,4.8,8.7,59,0.00,,,0.00,WSDL version 423,2013-01-10 18:58:00,
2013-01-10 13:03:00,41.0,27.6,30.09,East,79,3.7,10.3,59,0.00,,,0.00,WSDL version 423,2013-01-10 19:03:00,
2013-01-10 13:08:00,41.0,27.6,30.09,ENE,74,3.5,10.3,59,0.00,,,0.00,WSDL version 423,2013-01-10 19:08:00,
2013-01-10 13:13:00,41.0,27.8,30.06,ENE,76,5.5,12.3,59,0.00,,,0.00,WSDL version 423,2013-01-10 19:13:00,
2013-01-10 13:18:00,41.0,27.8,30.06,East,93,4.9,12.3,59,0.00,,,0.00,WSDL version 423,2013-01-10 19:18:00,
2013-01-10 13:23:00,40.8,27.6,30.06,ENE,77,5.8,10.1,59,0.00,,,0.00,WSDL version 423,2013-01-10 19:23:00,
2013-01-10 13:28:00,40.6,27.5,30.06,ENE,68,5.9,11.2,59,0.00,,,0.00,WSDL version 423,2013-01-10 19:28:00,
2013-01-10 13:33:00,40.5,27.7,30.06,East,87,6.5,12.8,60,0.00,,,0.00,WSDL version 423,2013-01-10 19:33:00,
2013-01-10 13:38:00,40.5,27.7,30.06,East,84,5.4,12.8,60,0.00,,,0.00,WSDL version 423,2013-01-10 19:38:00,
2013-01-10 13:43:00,40.5,27.7,30.03,East,87,6.8,10.5,60,0.00,,,0.00,WSDL version 423,2013-01-10 19:43:00,
2013-01-10 13:48:00,40.6,27.9,30.03,East,83,5.0,10.1,60,0.00,,,0.00,WSDL version 423,2013-01-10 19:48:00,
2013-01-10 13:53:00,40.6,28.1,30.03,East,98,6.3,9.8,61,0.00,,,0.00,WSDL version 423,2013-01-10 19:53:00,
2013-01-10 13:58:00,40.6,28.6,30.03,ENE,75,5.8,9.8,62,0.00,,,0.00,WSDL version 423,2013-01-10 19:58:00,
2013-01-10 14:03:00,40.5,28.7,30.03,NE,45,4.2,9.6,64,0.00,,,0.00,WSDL version 423,2013-01-10 20:03:00,
2013-01-10 14:08:00,40.2,30.3,30.03,East,90,5.0,10.1,69,0.00,,,0.00,WSDL version 423,2013-01-10 20:08:00,
2013-01-10 14:13:00,39.8,31.5,30.03,NE,45,5.1,10.1,73,0.00,,,0.00,WSDL version 423,2013-01-10 20:13:00,
2013-01-10 14:18:00,39.4,32.4,30.03,ENE,71,4.7,8.1,78,0.00,,,0.00,WSDL version 423,2013-01-10 20:18:00,
2013-01-10 14:23:00,38.9,33.3,30.03,ENE,61,4.4,8.5,81,0.00,,,0.00,WSDL version 423,2013-01-10 20:23:00,
2013-01-10 14:28:00,38.6,33.7,30.03,ENE,68,4.1,9.4,83,0.00,,,0.00,WSDL version 423,2013-01-10 20:28:00,
2013-01-10 14:33:00,38.2,33.8,30.03,ENE,63,4.1,9.4,86,0.00,,,0.00,WSDL version 423,2013-01-10 20:33:00,
2013-01-10 14:38:00,37.9,34.4,30.03,East,94,3.3,7.2,88,0.00,,,0.00,WSDL version 423,2013-01-10 20:38:00,
2013-01-10 14:43:00,37.7,34.9,30.03,ENE,72,4.5,7.8,90,0.00,,,0.00,WSDL version 423,2013-01-10 20:43:00,
2013-01-10 14:48:00,37.6,35.3,30.03,ENE,75,3.1,7.8,92,0.00,,,0.00,WSDL version 423,2013-01-10 20:48:00,
2013-01-10 14:54:00,37.4,35.4,30.03,ENE,73,4.4,7.4,93,0.04,,,0.04,WSDL version 423,2013-01-10 20:54:00,
2013-01-10 14:59:00,37.3,35.9,30.03,ENE,73,4.5,7.8,95,0.04,,,0.04,WSDL version 423,2013-01-10 20:59:00,
2013-01-10 15:04:00,37.2,36.3,30.03,ENE,73,3.1,7.8,97,0.04,,,0.04,WSDL version 423,2013-01-10 21:04:00,
2013-01-10 15:09:00,37.1,36.4,30.03,South,184,3.6,6.5,98,0.04,,,0.04,WSDL version 423,2013-01-10 21:09:00,
2013-01-10 15:14:00,37.0,36.5,30.03,ENE,63,3.4,7.2,98,0.04,,,0.04,WSDL version 423,2013-01-10 21:14:00,
2013-01-10 15:20:00,36.9,36.3,30.03,East,83,4.0,7.2,98,0.04,,,0.04,WSDL version 423,2013-01-10 21:20:00,
2013-01-10 15:25:00,36.9,36.4,30.00,East,80,3.8,7.4,99,0.04,,,0.04,WSDL version 423,2013-01-10 21:25:00,
2013-01-10 15:30:00,36.9,36.7,30.00,ENE,63,4.3,7.4,100,0.04,,,0.04,WSDL version 423,2013-01-10 21:30:00,
2013-01-10 15:35:00,36.9,36.9,30.00,NE,37,4.4,7.2,100,0.04,,,0.04,WSDL version 423,2013-01-10 21:35:00,
2013-01-10 15:41:00,36.8,36.8,30.00,ENE,68,4.3,7.8,100,0.04,,,0.04,WSDL version 423,2013-01-10 21:41:00,
2013-01-10 15:46:00,36.7,36.7,30.00,East,80,3.3,7.8,100,0.04,,,0.04,WSDL version 423,2013-01-10 21:46:00,
2013-01-10 15:51:00,36.7,36.6,30.00,NE,41,2.8,6.3,100,0.00,,,0.04,WSDL version 423,2013-01-10 21:51:00,
2013-01-10 15:56:00,36.7,36.6,30.03,ENE,61,2.2,5.6,100,0.00,,,0.04,WSDL version 423,2013-01-10 21:56:00,
2013-01-10 16:01:00,36.7,36.6,30.03,ENE,64,3.1,4.7,100,0.04,,,0.08,WSDL version 423,2013-01-10 22:01:00,
2013-01-10 16:06:00,36.7,36.6,30.03,East,82,2.9,4.7,100,0.04,,,0.08,WSDL version 423,2013-01-10 22:06:00,
2013-01-10 16:11:00,36.7,36.6,30.00,East,96,3.1,4.7,100,0.04,,,0.08,WSDL version 423,2013-01-10 22:11:00,
2013-01-10 16:16:00,36.9,36.8,30.00,ENE,68,3.1,5.6,100,0.04,,,0.08,WSDL version 423,2013-01-10 22:16:00,
2013-01-10 16:21:00,36.9,36.8,30.00,ENE,68,3.6,6.0,100,0.04,,,0.08,WSDL version 423,2013-01-10 22:21:00,
2013-01-10 16:26:00,37.0,36.9,30.00,ENE,73,2.8,6.3,100,0.04,,,0.08,WSDL version 423,2013-01-10 22:26:00,
2013-01-10 16:31:00,37.0,37.0,30.00,ENE,77,3.6,6.3,100,0.04,,,0.08,WSDL version 423,2013-01-10 22:31:00,
2013-01-10 16:36:00,37.0,37.0,30.00,ENE,77,3.7,6.9,100,0.04,,,0.08,WSDL version 423,2013-01-10 22:36:00,
2013-01-10 16:41:00,37.0,37.0,29.97,East,87,3.7,6.9,100,0.04,,,0.08,WSDL version 423,2013-01-10 22:41:00,
2013-01-10 16:46:00,37.0,37.0,29.97,ENE,73,3.1,7.2,100,0.04,,,0.08,WSDL version 423,2013-01-10 22:46:00,
2013-01-10 16:51:00,37.0,37.0,29.97,ENE,78,2.8,7.8,100,0.04,,,0.08,WSDL version 423,2013-01-10 22:51:00,
2013-01-10 16:57:00,37.2,37.1,29.97,ENE,68,3.1,7.8,100,0.04,,,0.08,WSDL version 423,2013-01-10 22:57:00,
2013-01-10 17:02:00,37.3,37.2,29.97,East,84,4.1,5.6,100,0.00,,,0.08,WSDL version 423,2013-01-10 23:02:00,
2013-01-10 17:07:00,37.3,37.3,29.97,ENE,73,3.6,6.3,100,0.00,,,0.08,WSDL version 423,2013-01-10 23:07:00,
2013-01-10 17:12:00,37.4,37.3,29.97,ENE,73,3.5,6.3,100,0.00,,,0.08,WSDL version 423,2013-01-10 23:12:00,
2013-01-10 17:17:00,37.4,37.3,29.97,ENE,68,3.1,5.6,100,0.00,,,0.08,WSDL version 423,2013-01-10 23:17:00,
2013-01-10 17:22:00,37.4,37.3,29.97,NE,55,2.3,4.9,100,0.00,,,0.08,WSDL version 423,2013-01-10 23:22:00,
2013-01-10 17:27:00,37.5,37.4,29.97,East,84,2.1,4.9,100,0.00,,,0.08,WSDL version 423,2013-01-10 23:27:00,
2013-01-10 17:32:00,37.6,37.5,29.97,NE,55,1.8,3.6,100,0.00,,,0.08,WSDL version 423,2013-01-10 23:32:00,
2013-01-10 17:37:00,37.7,37.6,29.97,ENE,68,2.9,6.5,100,0.00,,,0.08,WSDL version 423,2013-01-10 23:37:00,
2013-01-10 17:42:00,37.9,37.8,29.97,ENE,71,2.1,6.5,100,0.00,,,0.08,WSDL version 423,2013-01-10 23:42:00,
2013-01-10 17:49:00,38.1,38.0,29.97,NE,53,2.6,3.8,100,0.00,,,0.08,WSDL version 423,2013-01-10 23:49:00,
2013-01-10 17:54:00,38.4,38.3,29.94,ENE,64,2.5,5.4,100,0.00,,,0.08,WSDL version 423,2013-01-10 23:54:00,
2013-01-10 17:59:00,38.6,38.5,29.94,East,79,2.6,5.4,100,0.00,,,0.08,WSDL version 423,2013-01-10 23:59:00,
2013-01-10 18:04:00,38.7,38.6,29.94,ESE,104,1.9,4.7,100,0.00,,,0.08,WSDL version 423,2013-01-11 00:04:00,
2013-01-10 18:09:00,38.8,38.7,29.94,NE,48,1.9,4.7,100,0.00,,,0.08,WSDL version 423,2013-01-11 00:09:00,
2013-01-10 18:14:00,38.9,38.8,29.94,ENE,68,2.3,4.7,100,0.00,,,0.08,WSDL version 423,2013-01-11 00:14:00,
2013-01-10 18:19:00,39.0,38.9,29.94,ENE,64,2.8,6.3,100,0.00,,,0.08,WSDL version 423,2013-01-11 00:19:00,
2013-01-10 18:24:00,39.0,38.9,29.91,ENE,60,2.8,6.3,100,0.00,,,0.08,WSDL version 423,2013-01-11 00:24:00,
2013-01-10 18:29:00,39.0,38.9,29.91,ENE,73,2.6,4.3,100,0.00,,,0.08,WSDL version 423,2013-01-11 00:29:00,
2013-01-10 18:34:00,39.1,39.1,29.91,NE,55,1.4,4.9,100,0.05,,,0.13,WSDL version 423,2013-01-11 00:34:00,
2013-01-10 18:39:00,39.2,39.1,29.91,ENE,63,2.4,4.9,100,0.05,,,0.13,WSDL version 423,2013-01-11 00:39:00,
2013-01-10 18:44:00,39.3,39.2,29.91,ENE,72,2.8,5.8,100,0.05,,,0.13,WSDL version 423,2013-01-11 00:44:00,
2013-01-10 18:49:00,39.4,39.3,29.91,ENE,59,2.8,5.8,100,0.05,,,0.13,WSDL version 423,2013-01-11 00:49:00,
2013-01-10 18:54:00,39.4,39.3,29.91,East,84,1.5,5.6,100,0.05,,,0.13,WSDL version 423,2013-01-11 00:54:00,
2013-01-10 18:59:00,39.7,39.6,29.91,ENE,68,2.5,5.6,100,0.09,,,0.17,WSDL version 423,2013-01-11 00:59:00,
2013-01-10 19:04:00,39.7,39.7,29.91,ENE,61,2.7,4.3,100,0.09,,,0.17,WSDL version 423,2013-01-11 01:04:00,
2013-01-10 19:09:00,39.7,39.7,29.88,ENE,64,2.5,3.8,100,0.09,,,0.17,WSDL version 423,2013-01-11 01:09:00,
2013-01-10 19:14:00,39.6,39.5,29.88,ENE,64,3.2,4.3,100,0.09,,,0.17,WSDL version 423,2013-01-11 01:14:00,
2013-01-10 19:19:00,39.4,39.3,29.88,ENE,62,3.0,6.3,100,0.09,,,0.17,WSDL version 423,2013-01-11 01:19:00,
2013-01-10 19:24:00,39.2,39.1,29.88,ENE,77,2.6,6.3,100,0.09,,,0.17,WSDL version 423,2013-01-11 01:24:00,
2013-01-10 19:29:00,39.2,39.1,29.88,ENE,68,3.2,5.8,100,0.09,,,0.17,WSDL version 423,2013-01-11 01:29:00,
2013-01-10 19:34:00,39.2,39.1,29.88,ENE,75,3.5,7.2,100,0.04,,,0.17,WSDL version 423,2013-01-11 01:34:00,
2013-01-10 19:39:00,39.2,39.1,29.85,NE,49,3.1,7.2,100,0.08,,,0.21,WSDL version 423,2013-01-11 01:39:00,
2013-01-10 19:44:00,39.2,39.1,29.85,ENE,75,2.8,5.6,100,0.08,,,0.21,WSDL version 423,2013-01-11 01:44:00,
2013-01-10 19:49:00,39.2,39.1,29.85,NNE,30,1.1,5.6,100,0.12,,,0.25,WSDL version 423,2013-01-11 01:49:00,
2013-01-10 19:54:00,39.2,39.2,29.88,NE,56,0.0,4.0,100,0.16,,,0.29,WSDL version 423,2013-01-11 01:54:00,
2013-01-10 20:00:00,39.5,39.4,29.88,ENE,61,3.2,5.4,100,0.20,,,0.37,WSDL version 423,2013-01-11 02:00:00,
2013-01-10 20:05:00,39.7,39.6,29.88,ENE,68,1.6,5.4,100,0.24,,,0.41,WSDL version 423,2013-01-11 02:05:00,
2013-01-10 20:10:00,39.8,39.7,29.88,East,79,0.4,3.1,100,0.24,,,0.41,WSDL version 423,2013-01-11 02:10:00,
2013-01-10 20:15:00,40.0,40.0,29.88,NE,34,1.7,3.8,100,0.29,,,0.46,WSDL version 423,2013-01-11 02:15:00,
2013-01-10 20:20:00,40.4,40.3,29.88,ENE,75,1.4,3.8,100,0.33,,,0.50,WSDL version 423,2013-01-11 02:20:00,
2013-01-10 20:25:00,40.7,40.6,29.85,ENE,71,1.8,3.6,100,0.33,,,0.50,WSDL version 423,2013-01-11 02:25:00,
2013-01-10 20:31:00,41.0,41.0,29.85,SSW,195,1.5,4.7,100,0.33,,,0.50,WSDL version 423,2013-01-11 02:31:00,
2013-01-10 20:36:00,41.5,41.4,29.85,NNW,338,1.6,6.0,100,0.33,,,0.50,WSDL version 423,2013-01-11 02:36:00,
2013-01-10 20:41:00,42.0,41.9,29.85,NE,50,3.5,6.5,100,0.29,,,0.50,WSDL version 423,2013-01-11 02:41:00,
2013-01-10 20:46:00,42.4,42.3,29.85,NNE,28,4.7,12.8,100,0.29,,,0.50,WSDL version 423,2013-01-11 02:46:00,
2013-01-10 20:51:00,42.7,42.6,29.85,NNE,26,1.6,12.8,100,0.25,,,0.50,WSDL version 423,2013-01-11 02:51:00,
2013-01-10 20:56:00,42.9,42.8,29.85,East,84,3.0,5.4,100,0.17,,,0.50,WSDL version 423,2013-01-11 02:56:00,
2013-01-10 21:01:00,43.0,42.9,29.85,NNE,14,2.6,7.2,100,0.13,,,0.50,WSDL version 423,2013-01-11 03:01:00,
2013-01-10 21:06:00,43.0,42.9,29.85,NE,41,3.5,7.2,100,0.09,,,0.50,WSDL version 423,2013-01-11 03:06:00,
2013-01-10 21:11:00,43.3,43.2,29.83,NE,56,3.6,6.5,100,0.04,,,0.50,WSDL version 423,2013-01-11 03:11:00,
2013-01-10 21:16:00,43.4,43.3,29.83,NE,38,4.3,6.5,100,0.04,,,0.50,WSDL version 423,2013-01-11 03:16:00,
2013-01-10 21:21:00,43.5,43.4,29.83,NNE,28,2.4,6.5,100,0.00,,,0.50,WSDL version 423,2013-01-11 03:21:00,
2013-01-10 21:26:00,43.7,43.7,29.83,NNW,332,1.8,4.9,100,0.00,,,0.50,WSDL version 423,2013-01-11 03:26:00,
2013-01-10 21:31:00,43.9,43.8,29.83,NNW,338,1.9,3.8,100,0.00,,,0.50,WSDL version 423,2013-01-11 03:31:00,
2013-01-10 21:36:00,44.2,44.1,29.83,NNE,32,2.2,3.8,100,0.00,,,0.50,WSDL version 423,2013-01-11 03:36:00,
2013-01-10 21:41:00,44.5,44.4,29.80,North,3,1.7,3.6,100,0.00,,,0.50,WSDL version 423,2013-01-11 03:41:00,
2013-01-10 21:46:00,44.7,44.6,29.80,ENE,71,3.0,4.3,100,0.00,,,0.50,WSDL version 423,2013-01-11 03:46:00,
2013-01-10 21:51:00,44.9,44.8,29.80,NE,54,1.8,4.7,100,0.00,,,0.50,WSDL version 423,2013-01-11 03:51:00,
2013-01-10 21:56:00,45.1,45.0,29.80,NE,39,2.2,4.7,100,0.00,,,0.50,WSDL version 423,2013-01-11 03:56:00,
2013-01-10 22:01:00,45.4,45.3,29.80,NW,312,1.9,4.3,100,0.00,,,0.50,WSDL version 423,2013-01-11 04:01:00,
2013-01-10 22:06:00,45.7,45.6,29.80,West,279,3.2,6.5,100,0.00,,,0.50,WSDL version 423,2013-01-11 04:06:00,
2013-01-10 22:11:00,46.1,46.0,29.80,East,90,2.3,6.5,100,0.00,,,0.50,WSDL version 423,2013-01-11 04:11:00,
2013-01-10 22:16:00,46.4,46.3,29.80,North,11,2.4,3.8,100,0.00,,,0.50,WSDL version 423,2013-01-11 04:16:00,
2013-01-10 22:21:00,46.6,46.5,29.80,West,270,2.9,8.7,100,0.04,,,0.54,WSDL version 423,2013-01-11 04:21:00,
2013-01-10 22:26:00,47.0,46.9,29.80,NNE,23,3.1,8.7,100,0.04,,,0.54,WSDL version 423,2013-01-11 04:26:00,
2013-01-10 22:31:00,47.3,47.2,29.80,North,360,2.2,8.1,100,0.08,,,0.58,WSDL version 423,2013-01-11 04:31:00,
2013-01-10 22:36:00,47.6,47.5,29.80,West,276,2.7,8.1,100,0.12,,,0.62,WSDL version 423,2013-01-11 04:36:00,
2013-01-10 22:41:00,47.9,47.8,29.77,NW,306,3.4,10.5,100,0.12,,,0.62,WSDL version 423,2013-01-11 04:41:00,
2013-01-10 22:46:00,48.2,48.2,29.77,NNW,338,2.2,10.5,100,0.12,,,0.62,WSDL version 423,2013-01-11 04:46:00,
2013-01-10 22:51:00,48.5,48.4,29.77,NE,56,2.4,5.6,100,0.12,,,0.62,WSDL version 423,2013-01-11 04:51:00,
2013-01-10 22:56:00,48.6,48.5,29.77,NE,38,2.2,4.7,100,0.12,,,0.62,WSDL version 423,2013-01-11 04:56:00,
2013-01-10 23:01:00,48.7,48.6,29.77,NNE,28,1.4,4.3,100,0.12,,,0.62,WSDL version 423,2013-01-11 05:01:00,
2013-01-10 23:04:00,48.8,48.7,29.77,North,6,1.6,4.3,100,0.17,,,0.67,WSDL version 423,2013-01-11 05:04:00,
2013-01-10 23:09:00,49.1,49.1,29.77,East,90,1.8,5.8,100,0.17,,,0.67,WSDL version 423,2013-01-11 05:09:00,
2013-01-10 23:14:00,49.4,49.3,29.77,North,350,2.4,5.8,100,0.21,,,0.71,WSDL version 423,2013-01-11 05:14:00,
2013-01-10 23:19:00,49.6,49.6,29.77,North,11,0.6,4.7,100,0.21,,,0.71,WSDL version 423,2013-01-11 05:19:00,
2013-01-10 23:20:00,49.6,49.6,29.77,NNE,32,0.9,4.7,100,0.17,,,0.71,WSDL version 423,2013-01-11 05:20:00,
2013-01-10 23:25:00,49.7,49.7,29.74,ENE,68,2.5,4.7,100,0.17,,,0.71,WSDL version 423,2013-01-11 05:25:00,
2013-01-10 23:30:00,50.0,49.9,29.74,NNE,14,2.3,4.3,100,0.13,,,0.71,WSDL version 423,2013-01-11 05:30:00,
2013-01-10 23:35:00,49.9,49.8,29.74,ENE,74,1.2,4.3,100,0.09,,,0.71,WSDL version 423,2013-01-11 05:35:00,
2013-01-10 23:40:00,49.8,49.7,29.74,SSW,203,1.1,3.1,100,0.09,,,0.71,WSDL version 423,2013-01-11 05:40:00,
2013-01-10 23:45:00,49.8,49.7,29.74,North,360,2.2,3.6,100,0.09,,,0.71,WSDL version 423,2013-01-11 05:45:00,
2013-01-10 23:51:00,50.0,49.9,29.74,North,360,2.0,3.6,100,0.13,,,0.75,WSDL version 423,2013-01-11 05:51:00,
2013-01-10 23:56:00,50.2,50.1,29.74,NNE,18,2.7,5.4,100,0.17,,,0.79,WSDL version 423,2013-01-11 05:56:00,